FW6626 Weather Reports


Display with metric or nautical units.
time (UTC)temp
F
wind
direction
speed
MPH
gust
MPH
rain 1hr
in
rain 24hr
in
rain mn
in
humidity
%
barometer
mb
20260905004600 74 248 2.0 8.0 0.00 0.00 0.00 69 1013.0
20260905003101 74 229 4.0 9.0 0.00 0.00 0.00 69 1013.1
20260905001553 73 269 6.0 10.0 0.00 0.00 0.00 70 1013.1
20260905000059 75 250 4.0 11.0 0.00 0.00 0.00 69 1013.0
20260904234555 75 252 4.0 10.0 0.00 0.00 0.00 68 1013.1
20260904233055 75 251 5.0 9.0 0.00 0.00 0.00 69 1013.1
20260904231552 76 360 3.0 10.0 0.00 0.00 0.00 68 1013.1
20260904230108 75 224 5.0 13.0 0.00 0.00 0.00 68 1013.3
20260904224615 76 273 3.0 11.0 0.00 0.00 0.00 68 1013.3
20260904223107 75 231 7.0 12.0 0.00 0.00 0.00 66 1013.7
20260904221615 75 257 6.0 13.0 0.00 0.00 0.00 67 1013.6
20260904214555 75 221 6.0 13.0 0.00 0.00 0.00 66 1013.6
20260904213104 76 252 6.0 12.0 0.00 0.00 0.00 66 1013.9
20260904211558 76 250 5.0 11.0 0.00 0.00 0.00 67 1013.8
20260904210100 76 360 5.0 12.0 0.00 0.00 0.00 67 1014.0
20260904204604 76 244 5.0 14.0 0.00 0.00 0.00 67 1014.1
20260904203108 76 360 5.0 13.0 0.00 0.00 0.00 66 1014.0
20260904201616 76 234 5.0 12.0 0.00 0.00 0.00 67 1014.1
20260904200118 75 238 4.0 12.0 0.00 0.00 0.00 66 1014.0
20260904194604 75 231 6.0 11.0 0.00 0.00 0.00 66 1014.1
20260904193100 75 278 3.0 11.0 0.00 0.00 0.00 66 1014.1
20260904191602 75 227 5.0 10.0 0.00 0.00 0.00 65 1014.3
20260904184605 75 241 6.0 12.0 0.00 0.00 0.00 66 1014.7
20260904183057 75 259 4.0 11.0 0.00 0.00 0.00 67 1014.6
20260904181603 74 299 4.0 11.0 0.00 0.00 0.00 67 1014.6
20260904180100 75 229 2.0 10.0 0.00 0.00 0.00 66 1014.7
20260904174602 75 208 3.0 11.0 0.00 0.00 0.00 66 1014.8
20260904173053 74 266 3.0 9.0 0.00 0.00 0.00 67 1014.7
20260904171620 73 232 3.0 9.0 0.00 0.00 0.00 68 1014.9
20260904170059 73 234 5.0 9.0 0.00 0.00 0.00 68 1014.9
20260904164558 74 221 2.0 6.0 0.00 0.00 0.00 65 1014.6
20260904163100 75 175 3.0 8.0 0.00 0.00 0.00 64 1014.4
20260904161603 75 116 3.0 9.0 0.00 0.00 0.00 64 1014.5
20260904160100 76 114 2.0 7.0 0.00 0.00 0.00 63 1014.2
20260904154556 74 85 2.0 8.0 0.00 0.00 0.00 66 1014.0
20260904153116 72 105 4.0 9.0 0.00 0.00 0.00 66 1014.0
20260904151559 70 105 5.0 8.0 0.00 0.00 0.00 71 1013.9
20260904150057 70 115 5.0 9.0 0.00 0.00 0.00 70 1013.9
20260904144613 69 105 4.0 8.0 0.00 0.00 0.00 74 1013.8
20260904143121 66 90 4.0 8.0 0.00 0.00 0.00 77 1013.8
20260904141559 67 82 2.0 5.0 0.00 0.00 0.00 76 1013.7
20260904140058 66 88 2.0 4.0 0.00 0.00 0.00 78 1013.5
20260904134558 64 99 3.0 6.0 0.00 0.00 0.00 82 1013.5
20260904133111 63 94 3.0 7.0 0.00 0.00 0.00 83 1013.2
20260904131556 63 101 4.0 7.0 0.00 0.00 0.00 83 1013.3
20260904130105 63 101 4.0 8.0 0.00 0.00 0.00 82 1013.2
20260904124559 63 82 3.0 6.0 0.00 0.00 0.00 83 1013.2
20260904123100 63 80 3.0 6.0 0.00 0.00 0.00 83 1013.1
20260904121556 64 97 3.0 6.0 0.00 0.00 0.00 83 1013.1
20260904120105 64 93 4.0 7.0 0.00 0.00 0.00 82 1013.0
20260904114606 64 105 4.0 8.0 0.00 0.00 0.00 82 1013.2
20260904113058 65 107 3.0 9.0 0.00 0.00 0.00 82 1013.2
20260904111557 65 98 4.0 9.0 0.00 0.00 0.00 82 1013.3
20260904110053 65 121 5.0 8.0 0.00 0.00 0.00 82 1013.3
20260904104601 65 109 4.0 7.0 0.00 0.00 0.00 83 1013.2
20260904103057 65 101 3.0 7.0 0.00 0.00 0.00 84 1013.1
20260904101553 64 104 4.0 7.0 0.00 0.00 0.00 84 1012.9
20260904100059 64 94 3.0 6.0 0.00 0.00 0.00 84 1013.0
20260904094559 64 132 2.0 3.0 0.00 0.00 0.00 84 1012.9
20260904093054 63 133 2.0 4.0 0.00 0.00 0.00 85 1012.9
20260904091554 63 159 1.0 4.0 0.00 0.00 0.00 84 1013.0
20260904090100 64 161 1.0 4.0 0.00 0.00 0.00 84 1013.0
20260904084601 64 161 1.0 2.0 0.00 0.00 0.00 84 1013.0
20260904083105 63 161 0.0 2.0 0.00 0.00 0.00 84 1013.1
20260904081600 64 161 1.0 4.0 0.00 0.00 0.00 84 1013.3
20260904080121 64 0 0.0 0.0 0.00 0.00 0.00 84 1013.4
20260904074556 64 161 0.0 2.0 0.00 0.00 0.00 84 1013.5
20260904073112 64 161 1.0 4.0 0.00 0.00 0.00 84 1013.4
20260904071603 64 207 0.0 3.0 0.00 0.00 0.00 84 1013.5
20260904064557 64 207 1.0 3.0 0.00 0.00 0.00 83 1013.4
20260904063116 65 208 0.0 2.0 0.00 0.00 0.00 83 1013.4
20260904061557 65 0 0.0 0.0 0.00 0.00 0.00 83 1013.3
20260904060056 65 0 0.0 0.0 0.00 0.00 0.00 83 1013.3
20260904054604 64 0 0.0 0.0 0.00 0.00 0.00 82 1013.3
20260904053138 65 0 0.0 0.0 0.00 0.00 0.00 82 1013.4
20260904051556 66 0 0.0 0.0 0.00 0.00 0.00 81 1013.5
20260904050104 66 0 0.0 1.0 0.00 0.00 0.00 81 1013.6
20260904044614 65 209 0.0 2.0 0.00 0.00 0.00 81 1013.6
20260904043104 66 209 0.0 3.0 0.00 0.00 0.00 81 1013.5
20260904041603 66 0 1.0 3.0 0.00 0.00 0.00 80 1013.5
20260904040106 66 214 0.0 4.0 0.00 0.00 0.00 80 1013.4
20260904034605 66 216 1.0 3.0 0.00 0.00 0.00 81 1013.1
20260904033105 66 219 2.0 5.0 0.00 0.00 0.00 80 1013.0
20260904031603 66 0 0.0 2.0 0.00 0.00 0.00 80 1012.8
20260904030103 66 0 0.0 3.0 0.00 0.00 0.00 79 1012.8
20260904024601 67 237 1.0 4.0 0.00 0.00 0.00 78 1012.8
20260904023055 67 243 1.0 4.0 0.00 0.00 0.00 78 1012.9
20260904021558 68 250 1.0 4.0 0.00 0.00 0.00 77 1012.8
20260904014606 69 265 2.0 5.0 0.00 0.00 0.00 75 1012.8
20260904013118 70 241 3.0 9.0 0.00 0.00 0.00 74 1012.9
20260904011626 71 240 4.0 9.0 0.00 0.00 0.00 72 1012.9
20260904010057 71 0 4.0 12.0 0.00 0.00 0.00 72 1013.0